Location: NJAA Observatory
(40.6819°N, 74.8979°W)
Time: 15:12:28
(UTC-04:00)

Courier 1B - All Passes

Search period start: 28 August 2015 00:00
Search period end: 07 September 2015 00:00
Orbit: 962 x 1209 km, 28.3° (Epoch: 25 August)

Date Brightness Start Highest point End Pass type
(mag) Time Alt. Az. Time Alt. Az. Time Alt. Az.
28 Aug - 04:50:04 10° S 04:53:03 13° SSE 04:56:20 10° SE visible
28 Aug - 06:40:17 10° SW 06:46:15 27° SSE 06:52:30 10° ESE daylight
28 Aug - 08:33:07 10° WSW 08:39:44 32° S 08:46:31 10° ESE daylight
28 Aug - 10:27:12 10° WSW 10:33:15 25° SSW 10:39:15 10° SE daylight
28 Aug - 12:24:45 10° SW 12:26:33 11° SSW 12:28:00 10° SSW daylight
29 Aug - 05:47:08 10° SSW 05:52:36 23° SSE 05:58:22 10° ESE visible
29 Aug - 07:39:31 10° WSW 07:46:01 32° S 07:52:44 10° ESE daylight
29 Aug - 09:33:14 10° WSW 09:39:32 28° SSW 09:45:54 10° SE daylight
29 Aug - 11:28:54 10° SW 11:32:54 14° SSW 11:36:39 10° S daylight
30 Aug - 04:54:16 10° SSW 04:59:00 19° SSE 05:04:03 10° ESE visible
30 Aug - 06:46:03 10° SW 06:52:18 31° S 06:58:51 10° ESE daylight
30 Aug - 08:39:25 10° WSW 08:45:49 30° S 08:52:22 10° SE daylight
30 Aug - 10:34:15 10° WSW 10:39:15 18° SSW 10:44:07 10° SSE daylight
31 Aug - 04:01:47 10° S 04:05:27 15° SSE 04:09:26 10° ESE visible
31 Aug - 05:52:43 10° SW 05:58:39 28° S 06:04:53 10° ESE visible
31 Aug - 07:45:43 10° WSW 07:52:06 31° S 07:58:43 10° SE daylight
31 Aug - 09:40:00 10° WSW 09:45:34 22° SSW 09:51:07 10° SSE daylight
01 Sep - 03:10:13 10° SSE 03:11:57 11° SSE 03:13:59 10° SE visible
01 Sep - 04:59:32 10° SW 05:05:01 25° SSE 05:10:50 10° ESE visible
01 Sep - 06:52:09 10° WSW 06:58:24 31° S 07:04:58 10° ESE daylight
01 Sep - 08:46:00 10° WSW 08:51:53 25° SSW 08:57:52 10° SE daylight
01 Sep - 10:42:47 10° SW 10:45:12 11° SSW 10:47:20 10° S daylight
02 Sep - 04:06:32 10° SSW 04:11:27 21° SSE 04:16:40 10° ESE visible
02 Sep - 05:58:39 10° SW 06:04:44 31° S 06:11:08 10° ESE visible
02 Sep - 07:52:10 10° WSW 07:58:12 27° S 08:04:25 10° SE daylight
02 Sep - 09:47:30 10° SW 09:51:33 15° SSW 09:55:28 10° S daylight
03 Sep - 03:13:49 10° SSW 03:17:55 17° SSE 03:22:19 10° ESE visible
03 Sep - 05:05:18 10° SW 05:11:06 29° S 05:17:14 10° ESE visible
03 Sep - 06:58:28 10° WSW 07:04:31 29° S 07:10:50 10° SE daylight
03 Sep - 08:53:03 10° WSW 08:57:55 18° SSW 09:02:45 10° SSE daylight
04 Sep - 02:21:34 10° S 02:24:26 13° SSE 02:27:33 10° SE visible
04 Sep - 04:12:03 10° SW 04:17:31 26° SSE 04:23:17 10° ESE visible
04 Sep - 06:04:53 10° WSW 06:10:52 30° S 06:17:08 10° SE daylight
04 Sep - 07:58:57 10° WSW 08:04:15 21° SSW 08:09:39 10° SSE daylight
05 Sep - 03:18:58 10° SW 03:23:58 23° SSE 03:29:15 10° ESE visible
05 Sep - 05:11:23 10° WSW 05:17:14 30° S 05:23:24 10° ESE visible
05 Sep - 07:05:04 10° WSW 07:10:37 24° SSW 07:16:20 10° SE daylight
05 Sep - 09:01:32 10° SW 09:03:55 11° SSW 09:06:03 10° S daylight
06 Sep - 02:26:03 10° SSW 02:30:28 19° SSE 02:35:06 10° ESE visible
06 Sep - 04:18:00 10° SW 04:23:38 29° S 04:29:35 10° ESE visible
06 Sep - 06:11:20 10° WSW 06:16:59 26° S 06:22:52 10° SE daylight
06 Sep - 08:06:28 10° SW 08:10:18 15° SSW 08:14:01 10° S daylight
